Weather History for CWDC - December, 2013

Change the Weather History Date:

Monday, December 30, 2013

  Actual Average Record
Temperature  
Mean Temperature -40 °F -  
Max Temperature -31 °F - - ()
Min Temperature -49 °F - - ()
Degree Days  
Heating Degree Days 105    
Moisture  
Dew Point -50 °F    
Average Humidity 59    
Maximum Humidity 75    
Minimum Humidity 37    
Precipitation  
Precipitation 0.01 in - - ()
Sea Level Pressure  
Sea Level Pressure 30.51 in    
Wind  
Wind Speed 1 mph ()    
Max Wind Speed 5 mph    
Max Gust Speed -    
T = Trace of Precipitation, MM = Missing Value Source: Averaged Metar Reports

Daily Weather History Graph

Daily Weather History Graph

Search for Another Location

Airport or City:

Trip Planner

Search our weather history database for the weather conditions in past years. The results will help you decide how hot, cold, wet, or windy it might be!

Date:

Astronomy

Dec. 30, 2013 Rise Set
Actual Time 10:12 AM CST 4:20 PM CST
Civil Twilight 9:17 AM CST 5:16 PM CST
Nautical Twilight 8:21 AM CST 6:11 PM CST
Astronomical Twilight 7:31 AM CST 7:02 PM CST
Moon 7:51 AM CST (12/30) 3:10 PM CST (12/30)
Length of Visible Light 7h 59m
Length of Day
6h 07m
Waning Crescent, 4% of the Moon is Illuminated
Dec 30
Waning Crescent
Jan 1
New
Jan 7
First Quarter
Jan 15
Full
Jan 23
Last Quarter

Hourly Weather History & Observations

Time (CST) Temp. Windchill Dew Point Humidity Pressure Visibility Wind Dir Wind Speed Gust Speed Precip Events Conditions
12:00 AM -47 °F - -56 °F 39% 30.44 in - Calm Calm - -  
12:00 AM -47.2 °F - -55.7 °F 61% 30.44 in - Calm Calm - N/A   Unknown
1:00 AM -48.1 °F - -56.7 °F 61% 30.44 in - Calm Calm - 0.01 in   Unknown
2:00 AM -49.0 °F - -57.6 °F 60% 30.45 in - ENE 2.3 mph - N/A   Unknown
3:00 AM -47 °F - -55 °F 42% 30.44 in - NW 1.2 mph - -  
3:00 AM -46.7 °F - -54.9 °F 62% 30.44 in - NW 1.2 mph - N/A   Unknown
4:00 AM -42.2 °F - -49.9 °F 65% 30.44 in - SW 1.2 mph - N/A   Unknown
5:00 AM -39.1 °F - -46.8 °F 65% 30.45 in - West 2.3 mph - N/A   Unknown
6:00 AM -36 °F - -42 °F 54% 30.47 in - West 4.6 mph - -  
6:00 AM -35.7 °F -51.5 °F -42.3 °F 70% 30.47 in - West 4.6 mph - N/A   Unknown
7:00 AM -44.5 °F - -53.3 °F 60% 30.49 in - Calm Calm - N/A   Unknown
8:00 AM -44.1 °F - -52.4 °F 62% 30.51 in - NNE 2.3 mph - N/A   Unknown
9:00 AM -43 °F - -51 °F 42% 30.52 in - ENE 1.2 mph - -  
9:00 AM -43.1 °F - -51.3 °F 63% 30.52 in - ENE 1.2 mph - N/A   Unknown
10:00 AM -42.7 °F - -53.0 °F 56% 30.53 in - North 2.3 mph - N/A   Unknown
11:00 AM -42.3 °F - -50.6 °F 63% 30.54 in - Calm Calm - N/A   Unknown
12:00 PM -40 °F - -48 °F 46% 30.55 in - Calm Calm - -  
12:00 PM -39.6 °F - -47.6 °F 64% 30.55 in - Calm Calm - N/A   Unknown
1:00 PM -33.7 °F -46.3 °F -39.1 °F 75% 30.52 in - NW 3.5 mph - N/A   Unknown
2:00 PM -31.5 °F - -38.4 °F 69% 30.53 in - SW 1.2 mph - N/A   Unknown
3:00 PM -33 °F - -40 °F 51% 30.55 in - WSW 3.5 mph - -  
3:00 PM -33.0 °F -45.5 °F -40.0 °F 69% 30.55 in - WSW 3.5 mph - N/A   Unknown
4:00 PM -34.8 °F -50.5 °F -42.2 °F 67% 30.55 in - West 4.6 mph - N/A   Unknown
5:00 PM -39.8 °F - -47.6 °F 65% 30.55 in - NW 1.2 mph - N/A   Unknown
6:00 PM -43 °F - -52 °F 40% 30.56 in - Calm Calm - -  
6:00 PM -43.4 °F - -49.9 °F 69% 30.56 in - Calm Calm - N/A   Unknown
7:00 PM -46.3 °F - -54.9 °F 61% 30.56 in - ENE 2.3 mph - N/A   Unknown
8:00 PM -47.6 °F - -56.2 °F 61% 30.54 in - ENE 2.3 mph - N/A   Unknown
9:00 PM -48 °F - -57 °F 37% 30.53 in - ENE 4.6 mph - -  
9:00 PM -48.5 °F -66.5 °F -57.1 °F 60% 30.53 in - ENE 4.6 mph - N/A   Unknown
10:00 PM -47.7 °F - -56.4 °F 61% 30.53 in - Calm Calm - N/A   Unknown
11:00 PM -48.5 °F - -57.3 °F 60% 30.52 in - East 1.2 mph - N/A   Unknown